NUSAT-18 (VERA)

Last updated on Sun Oct 01 2023 00:02:26 GMT+0000 (Coordinated Universal Time)

1 46836U 20079K 23272.86624765 .05727838 23370-5 88403-3 0 9991 2 46836 97.1125 349.3684 0010377 268.7005 91.3103 16.33973058163054
UTC large
Height (km)
Speed (km/s)
/
Latitude / Longitude
Inclination (degrees)
Orbital Period (minutes)
Azimuth
Elevation
Range (km)
Doppler Factor

Next 0 passes for location: London (51.5072 / 0.1276)

Sorry there are no passes over London.